Abbadia Cerreto, Italy

10:35 AM CET on January 24, 2018 (GMT +0100)
Lodi (San Bernardo) | | Change Station

Elev 256 ft 45.30 °N, 9.52 °E | Updated 9 seconds ago

Clear
Clear
42.7 °F
Feels Like 37 °F
N
10.4
Wind Variable Wind from West
Gusts 10.4 mph

Today
High -- | Low -- °F
--% Chance of Precip.
Yesterday
High -- | Low -- °F
Precip. -- in
Pressure 30.48 in
Visibility 3.7 miles
Clouds
Windchill 37 °F
Dew Point 38 °F
Humidity 84%
Rainfall 0.00 in
Snow Depth Not available.
7:50 AM 5:17 PM
Waxing Crescent, 44% visible
METAR LIML 240920Z VRB02KT 6000 NSC 07/03 Q1032 NOSIG
Pressure 30.48 in
Visibility 3.7 miles
Clouds
Windchill 37 °F
Dew Point 38 °F
Humidity 84%
Rainfall 0.00 in
Snow Depth Not available.
7:50 AM 5:17 PM
Waxing Crescent, 44% visible
METAR LIML 240920Z VRB02KT 6000 NSC 07/03 Q1032 NOSIG

Get Severe Weather Alerts

Thanks for signing up!

Be on the lookout for a verification email in your inbox.

You'll start receiving the daily forecast at 6 AM.

×

10-Day Weather Forecast

×

Almanac

Astronomy

Jan. 24, 2018 Rise Set
Actual Time
Civil Twilight
Nautical Twilight
Astronomical Twilight
Moon
Length of Visible Light
Length of Day
Tomorrow will be .
, % of the Moon is Illuminated

Today's Extremes

Country Highs Country Lows

Community

WunderPhotos

Category 6

Welcome to Category 6. This is the collective home for Weather Underground's featured writeups by Dr. Jeff Masters (right), Bob Henson (left), Chris Burt, and other regular contributors.

Nearby

Air Quality

  Air Quality AQ Index Pollutant
Not available.

Snow Depth

Station Depth Elevation

Earthquake Activity

City Distance Mag. Time & Date
Minimum magnitude displayed is 2.5.

Coastal Water Temperatures

Place Temperature

Stations

Nearby Weather Stations

Station Location Temp. Windchill Dew Point Humidity Wind Precip. Elev Updated Type